Flag for Germany Weather past 2 weeks in Herne, North Rhine-Westphalia, Germany

37 °F

Passing clouds.

Feels Like: 31 °F
Forecast: 39 / 45 °F
Wind: 8 mph from Northeast

Location: Dortmund / Wickede

Current Time: Oct 14, 2015 at 2:06:12 AM

Latest Report: Oct 13, 2015 at 10:50 PM

Visibility: N/A

Pressure: 30.12 "Hg

Humidity: 75%

Dew point: 30 °F

Location of HerneLocation

Historic Weather in Herne — Graph


Herne temperature yesterday

Maximum temperature yesterday: 39 °F (at 1:20 PM)
Minimum temperature yesterday: 30 °F (at 5:20 AM)
Average temperature yesterday: 36 °F

Past Weeks' High & Low Weather Summary

High68 °F (Oct 3, 2:50 PM)94% (Oct 8, 1:20 PM)30.63 "Hg (Oct 8, 1:20 PM)
Low30 °F (Oct 12, 6:50 AM)39% (Sep 30, 4:20 PM)29.59 "Hg (Oct 6, 6:20 AM)
Average52 °F73%30.11 "Hg
* Reported Sep 28 10:20 PM — Oct 13 10:50 PM, Herne, Weather by CustomWeather, © 2015

Note: Actual official high and low records may vary slightly from our data, if they occured in-between our weather recording intervals... More about our weather records


Herne weather history for previous 24 hours

Time TempWeatherWind HumidityBarometerVisibility
10:50 PM
Tue, Oct 13
37 °FPassing clouds.8 mph75%30.12 "HgN/A
10:20 PM37 °FPassing clouds.10 mph75%30.09 "HgN/A
9:50 PM37 °FPassing clouds.9 mph81%30.09 "HgN/A
9:20 PM37 °FPassing clouds.8 mph81%30.09 "HgN/A
8:50 PM37 °FPassing clouds.8 mph81%30.09 "HgN/A
8:20 PM37 °FPassing clouds.9 mph81%30.09 "HgN/A
7:50 PM37 °FPassing clouds.8 mph81%30.09 "HgN/A
7:20 PM39 °FPartly sunny.9 mph70%30.09 "Hg6 mi
6:50 PM39 °FPartly sunny.8 mph70%30.09 "HgN/A
6:20 PM39 °FPartly sunny.12 mph70%30.09 "Hg6 mi
5:50 PM39 °FPartly sunny.10 mph75%30.07 "Hg6 mi
5:20 PM39 °FPartly sunny.12 mph75%30.07 "Hg6 mi
4:50 PM39 °FPartly sunny.12 mph75%30.07 "Hg4 mi
4:20 PM39 °FPartly sunny.13 mph75%30.07 "Hg4 mi
3:50 PM39 °FPartly sunny.12 mph75%30.07 "Hg4 mi
3:20 PM39 °FPartly sunny.12 mph75%30.07 "Hg4 mi
2:50 PM39 °FPartly sunny.12 mph75%30.07 "Hg4 mi
2:20 PM39 °FPartly sunny.13 mph75%30.07 "Hg4 mi
1:50 PM39 °FPartly sunny.12 mph75%30.07 "Hg4 mi
1:20 PM39 °FPartly sunny.13 mph75%30.07 "Hg4 mi
12:50 PM37 °FPartly sunny.16 mph81%30.07 "Hg4 mi
12:20 PM37 °FPartly sunny.13 mph81%30.07 "Hg4 mi
11:50 AM37 °FPartly sunny.12 mph81%30.04 "HgN/A
11:20 AM37 °FPartly sunny.15 mph81%30.04 "Hg4 mi
10:50 AM37 °FPartly sunny.14 mph81%30.04 "Hg5 mi
10:20 AM36 °FScattered clouds.12 mph87%30.04 "Hg5 mi
9:50 AM34 °FClear.9 mph87%30.04 "Hg5 mi
9:20 AM34 °FClear.7 mph87%30.01 "Hg4 mi
8:50 AM32 °FSunny.6 mph93%30.01 "Hg10 mi
8:20 AM32 °FClear.5 mph87%30.01 "Hg10 mi
7:50 AM30 °FClear.6 mph93%30.01 "Hg10 mi
7:20 AM30 °FClear.5 mph93%30.01 "Hg10 mi
6:50 AM30 °FClear.6 mph93%30.01 "Hg10 mi
6:20 AM30 °FClear.5 mph93%30.01 "Hg10 mi
5:50 AM30 °FClear.5 mph93%29.98 "Hg10 mi
5:20 AM30 °FClear.2 mph93%30.01 "Hg10 mi
Weather by CustomWeather, © 2015

See weather overviewHow to use our weather pages